When you browse on this site, cookies collect data to enhance your experience and personalize the content and advertising you see.
Visit our Privacy Policy to learn more. By continuing to use the site, you agree to this use of cookies and data.
  • în România
  • Lista ţărilor
  • Pe 7 zile
  • Temperatura apei
  • Hartă satelitară
  • Meteo pe hartă
  • Widget-uri
  • user-avatar
    Intrare

    Meteo pe oră la Akranes

    Astăzi, 23 Ianuarie, Miercuri

    Timp Temperatura Precipitaţii Vânt Presiune Umiditate
    00:00 -6°C° 0.1 mm 3 m/s 744 mmHg 81%
    01:00 -6°C° 0.1 mm 3 m/s 744 mmHg 81%
    02:00 -5°C° 0.1 mm 3 m/s 745 mmHg 81%
    03:00 -5°C° 0.2 mm 3 m/s 745 mmHg 83%
    04:00 -5°C° 0.2 mm 3 m/s 745 mmHg 84%
    05:00 -4°C° 0.2 mm 2 m/s 745 mmHg 85%
    06:00 -5°C° 0 mm 2 m/s 746 mmHg 86%
    07:00 -5°C° 0 mm 2 m/s 746 mmHg 87%
    08:00 -6°C° 0 mm 2 m/s 747 mmHg 88%
    09:00 -6°C° 0 mm 2 m/s 748 mmHg 88%
    10:00 -6°C° 0 mm 2 m/s 748 mmHg 88%
    11:00 -7°C° 0 mm 3 m/s 749 mmHg 88%
    12:00 -6°C° 0 mm 2 m/s 749 mmHg 87%
    13:00 -6°C° 0 mm 2 m/s 750 mmHg 85%
    14:00 -6°C° 0 mm 2 m/s 750 mmHg 83%
    15:00 -6°C° 0 mm 2 m/s 750 mmHg 83%
    16:00 -6°C° 0 mm 2 m/s 751 mmHg 83%
    17:00 -6°C° 0 mm 2 m/s 751 mmHg 82%
    18:00 -6°C° 0 mm 2 m/s 751 mmHg 80%
    19:00 -6°C° 0 mm 2 m/s 752 mmHg 79%
    20:00 -6°C° 0 mm 2 m/s 752 mmHg 77%
    21:00 -7°C° 0 mm 3 m/s 752 mmHg 73%
    22:00 -7°C° 0 mm 3 m/s 752 mmHg 69%
    23:00 -7°C° 0 mm 3 m/s 751 mmHg 65%

    Mâine, 24 Ianuarie, Joi

    Timp Temperatura Precipitaţii Vânt Presiune Umiditate
    00:00 -7°C° 0 mm 3 m/s 751 mmHg 63%
    01:00 -7°C° 0 mm 3 m/s 751 mmHg 62%
    02:00 -6°C° 0 mm 3 m/s 750 mmHg 60%
    03:00 -6°C° 0 mm 3 m/s 750 mmHg 62%
    04:00 -6°C° 0 mm 3 m/s 749 mmHg 64%
    05:00 -5°C° 0 mm 3 m/s 749 mmHg 67%
    06:00 -5°C° 0.1 mm 4 m/s 748 mmHg 72%
    07:00 -6°C° 0.1 mm 5 m/s 748 mmHg 77%
    08:00 -6°C° 0.1 mm 5 m/s 747 mmHg 83%
    09:00 -6°C° 0.2 mm 6 m/s 746 mmHg 84%
    10:00 -7°C° 0.2 mm 7 m/s 745 mmHg 86%
    11:00 -6°C° 0.2 mm 8 m/s 744 mmHg 87%
    12:00 -6°C° 0.5 mm 8 m/s 744 mmHg 89%
    13:00 -4°C° 0.5 mm 7 m/s 743 mmHg 90%
    14:00 -4°C° 0.5 mm 6 m/s 742 mmHg 92%
    15:00 -2°C° 0.2 mm 5 m/s 742 mmHg 90%
    16:00 -2°C° 0.2 mm 5 m/s 741 mmHg 89%
    17:00 -1°C° 0.2 mm 4 m/s 741 mmHg 88%
    18:00 -1°C° 0.2 mm 3 m/s 741 mmHg 88%
    19:00 -1°C° 0.2 mm 3 m/s 741 mmHg 88%
    20:00 -1°C° 0.2 mm 2 m/s 741 mmHg 88%
    21:00 -1°C° 0 mm 2 m/s 742 mmHg 88%
    22:00 -2°C° 0 mm 2 m/s 742 mmHg 88%
    23:00 -2°C° 0 mm 2 m/s 743 mmHg 88%

    Poimâine, 25 Ianuarie, Vineri

    Timp Temperatura Precipitaţii Vânt Presiune Umiditate
    00:00 -2°C° 0.1 mm 2 m/s 743 mmHg 88%
    01:00 -2°C° 0.1 mm 3 m/s 744 mmHg 88%
    02:00 -1°C° 0.1 mm 3 m/s 744 mmHg 88%
    03:00 -2°C° 0.3 mm 4 m/s 745 mmHg 89%
    04:00 -2°C° 0.3 mm 4 m/s 745 mmHg 90%
    05:00 -1°C° 0.3 mm 5 m/s 745 mmHg 91%
    06:00 -2°C° 0.4 mm 4 m/s 746 mmHg 91%
    07:00 -1°C° 0.4 mm 3 m/s 746 mmHg 91%
    08:00 -1°C° 0.4 mm 3 m/s 746 mmHg 91%
    09:00 -2°C° 0 mm 3 m/s 747 mmHg 90%
    10:00 -3°C° 0 mm 4 m/s 747 mmHg 89%
    11:00 -4°C° 0 mm 4 m/s 748 mmHg 88%
    12:00 -4°C° 0 mm 5 m/s 749 mmHg 87%
    13:00 -4°C° 0 mm 6 m/s 749 mmHg 86%
    14:00 -3°C° 0 mm 6 m/s 750 mmHg 85%
    15:00 -4°C° 0 mm 7 m/s 751 mmHg 84%
    16:00 -6°C° 0 mm 7 m/s 752 mmHg 84%
    17:00 -7°C° 0 mm 7 m/s 753 mmHg 84%
    18:00 -7°C° 0 mm 7 m/s 755 mmHg 82%
    19:00 -8°C° 0 mm 7 m/s 756 mmHg 80%
    20:00 -8°C° 0 mm 7 m/s 757 mmHg 78%
    21:00 -9°C° 0 mm 7 m/s 758 mmHg 77%
    22:00 -9°C° 0 mm 6 m/s 759 mmHg 76%
    23:00 -9°C° 0 mm 6 m/s 760 mmHg 76%

    26 Ianuarie, Sâmbătă

    Timp Temperatura Precipitaţii Vânt Presiune Umiditate
    00:00 -9°C° 0 mm 6 m/s 761 mmHg 77%
    01:00 -10°C° 0 mm 5 m/s 761 mmHg 78%
    02:00 -10°C° 0 mm 5 m/s 762 mmHg 79%
    03:00 -9°C° 0 mm 4 m/s 763 mmHg 80%
    04:00 -9°C° 0 mm 4 m/s 763 mmHg 80%
    05:00 -9°C° 0 mm 4 m/s 764 mmHg 81%
    06:00 -9°C° 0 mm 4 m/s 764 mmHg 83%
    07:00 -8°C° 0 mm 3 m/s 765 mmHg 84%
    08:00 -8°C° 0 mm 3 m/s 765 mmHg 85%
    09:00 -8°C° 0 mm 3 m/s 766 mmHg 85%
    10:00 -7°C° 0 mm 2 m/s 766 mmHg 85%
    11:00 -7°C° 0 mm 2 m/s 766 mmHg 84%
    12:00 -6°C° 0 mm 2 m/s 766 mmHg 82%
    13:00 -6°C° 0 mm 2 m/s 766 mmHg 80%
    14:00 -5°C° 0 mm 2 m/s 766 mmHg 78%
    15:00 -6°C° 0 mm 2 m/s 766 mmHg 76%
    16:00 -6°C° 0 mm 2 m/s 766 mmHg 74%
    17:00 -6°C° 0 mm 2 m/s 766 mmHg 72%
    18:00 -6°C° 0 mm 2 m/s 766 mmHg 71%
    19:00 -6°C° 0 mm 2 m/s 766 mmHg 71%
    20:00 -7°C° 0 mm 2 m/s 766 mmHg 70%
    21:00 -7°C° 0 mm 2 m/s 766 mmHg 71%
    22:00 -7°C° 0 mm 2 m/s 765 mmHg 72%
    23:00 -7°C° 0 mm 3 m/s 765 mmHg 73%

    27 Ianuarie, Duminică

    Timp Temperatura Precipitaţii Vânt Presiune Umiditate
    00:00 -8°C° 0 mm 4 m/s 765 mmHg 74%
    01:00 -8°C° 0 mm 4 m/s 765 mmHg 75%
    02:00 -7°C° 0 mm 5 m/s 764 mmHg 76%
    03:00 -7°C° 0 mm 5 m/s 764 mmHg 77%
    04:00 -8°C° 0 mm 6 m/s 763 mmHg 78%
    05:00 -9°C° 0 mm 6 m/s 763 mmHg 79%
    06:00 -8°C° 0.1 mm 6 m/s 762 mmHg 81%
    07:00 -8°C° 0.1 mm 7 m/s 762 mmHg 82%
    08:00 -8°C° 0.1 mm 7 m/s 761 mmHg 84%
    09:00 -7°C° 0.3 mm 7 m/s 761 mmHg 86%
    10:00 -7°C° 0.3 mm 8 m/s 760 mmHg 88%
    11:00 -6°C° 0.3 mm 8 m/s 760 mmHg 91%
    12:00 -6°C° 0.3 mm 7 m/s 759 mmHg 92%
    13:00 -4°C° 0.3 mm 6 m/s 759 mmHg 92%
    14:00 -2°C° 0.3 mm 5 m/s 759 mmHg 93%
    15:00 -1°C° 0.2 mm 5 m/s 758 mmHg 95%
    16:00 -1°C° 0.2 mm 4 m/s 758 mmHg 96%
    17:00 0°C° 0.2 mm 4 m/s 758 mmHg 97%
    18:00 0°C° 0.1 mm 4 m/s 758 mmHg 97%
    19:00 +1°C° 0.1 mm 4 m/s 757 mmHg 97%
    20:00 +1°C° 0.1 mm 4 m/s 757 mmHg 97%
    21:00 +1°C° 0.2 mm 5 m/s 757 mmHg 97%
    22:00 +1°C° 0.2 mm 6 m/s 756 mmHg 97%
    23:00 +2°C° 0.2 mm 6 m/s 756 mmHg 97%

    28 Ianuarie, Luni

    Timp Temperatura Precipitaţii Vânt Presiune Umiditate
    00:00 0°C° 0.1 mm 7 m/s 756 mmHg 95%
    01:00 0°C° 0.1 mm 7 m/s 755 mmHg 93%
    02:00 0°C° 0.1 mm 8 m/s 755 mmHg 91%
    03:00 -1°C° 0.1 mm 9 m/s 754 mmHg 89%
    04:00 -2°C° 0.1 mm 10 m/s 754 mmHg 86%
    05:00 -2°C° 0.1 mm 11 m/s 753 mmHg 84%
    06:00 -3°C° 0.2 mm 12 m/s 753 mmHg 83%
    07:00 -5°C° 0.2 mm 13 m/s 753 mmHg 82%
    08:00 -6°C° 0.2 mm 13 m/s 752 mmHg 80%
    09:00 -6°C° 0.2 mm 14 m/s 752 mmHg 79%
    10:00 -8°C° 0.2 mm 15 m/s 752 mmHg 78%
    11:00 -8°C° 0.2 mm 16 m/s 751 mmHg 76%
    12:00 -8°C° 0.3 mm 17 m/s 750 mmHg 74%
    13:00 -9°C° 0.3 mm 17 m/s 750 mmHg 73%
    14:00 -10°C° 0.3 mm 18 m/s 749 mmHg 71%
    15:00 -10°C° 0.4 mm 18 m/s 748 mmHg 71%
    16:00 -11°C° 0.4 mm 17 m/s 747 mmHg 70%
    17:00 -11°C° 0.4 mm 17 m/s 746 mmHg 70%
    18:00 -11°C° 0.4 mm 18 m/s 745 mmHg 69%
    19:00 -12°C° 0.4 mm 18 m/s 745 mmHg 69%
    20:00 -12°C° 0.4 mm 19 m/s 744 mmHg 68%
    21:00 -12°C° 0.4 mm 19 m/s 743 mmHg 70%
    22:00 -12°C° 0.4 mm 19 m/s 742 mmHg 73%
    23:00 -12°C° 0.4 mm 19 m/s 742 mmHg 75%
    Arată mai mult